ARIANE 5 R/B, 41383

Orbit data source: Space-Track

ARIANE 5 R/B, 41383 is space debris in HEO originally from a launch on Wed, 09 Mar 2016 UTC launched from the French Guiana (FRGUI). Debris objects in space refer to the collection of defunct objects orbiting the Earth. Examples of debris include non-operational satellites, rocket bodies, and fragments generated from explosions, collisions, or faulty payload assembly.

Loading next visibility...
Identifier
41383, 2016-014B
Orbit
HEO
Country
Flag of FRFR
Related business
Manufacturer
Airbus Safran
Mission
Spacecraft
Bus & Motor
ESC-A, Unknown motor
Mass
~5,000 kg wet, ~5,000 kg dry
Launch date (UTC)
2016-03-09 (10 years ago)
Launch vehicle
Unknown
Launch site
French Guiana (FRGUI)
Object type
Payload
Rocket body
Debris
Shape & HBR
Cyl + 1 Nozzle, 3.5 m
Radar Cross Section
41.627 m², Large (>1 m²)

Expand to show TLE details & history
Last TLE update: 18 hours ago

TLE from 18 hours ago
0 ARIANE 5 R/B
1 41383U 16014B   25259.41313085  .00010926  00000-0  87058-3 0  9998
2 41383   0.3099 124.3983 6580477 117.3063  38.2023  3.23948153 93682
Epoch: 2025-09-16T09:54Z
TLE epoch observation values (Epoch: 2025-09-16T09:54:54.505Z)
Latitude
-0.25705°
Longitude
-144.33093°
Altitude
9,539.489 km
Speed
5.424 km/s
True Right ascension
23h 59m 59s
True Declination
0° 15' 23"
Sunlit
Object was in full shadow at epoch
Visualization orbit readout
Latitude
Unknown
Longitude
Unknown
Altitude
Unknown
Speed
Unknown
Apparent Right ascension
Unknown
Apparent Declination
Unknown
Sunlit
N/A
Visualization observer readout
Local Sidereal Time
20:37:56
Azimuth
Unknown
Elevation
Unknown
Doppler factor
Unknown
Orbital elements
Apogee altitude
25,620.819 km
Perigee altitude
221.261 km
Semi-major axis
19,299.177 km
Eccentricity
0.65805
Inclination
0.3099°
RAAN
124.3983°
Arg. of periapsis
117.3063°
True anomaly
118.3454°
Mean anomaly
38.2023°
Eccentric anomaly
74.54173°
Mean motion
0.80953 °/min
Orbital period
444.7 mins
BSTAR
0.00087058
Loading maneuver chart data...
Computing Atmospheric mass density...
Loading historical data...
Loading historical data...
Loading historical data...
Loading historical data...
Loading historical data...
Loading historical data...
Loading historical data...
Other satellites on launch #14 in the year 2016 (2016-03-09 UTC)

Documentation

Showing up to 5 results
|